GEFSMW_500_meanwind_312.txt.gz
Wind_Speed
44 45 45 44 44 45 45 45 45 44 43 43 43 42 42 42 43 43 43 43 43 42 43 43 42 40 40 39 38 37 37 36 36 36 36 37 37 37 37 36 35 35 35
45 46 46 46 46 46 46 46 46 45 45 44 44 44 44 43 43 44 44 43 43 43 42 42 42 41 41 40 39 39 38 37 37 36 37 37 38 38 38 38 37 37 37
45 46 47 47 47 46 46 46 47 46 46 46 45 46 46 45 45 45 44 43 43 43 42 41 41 41 41 41 40 40 40 39 39 38 38 38 39 39 39 39 39 39 38
45 46 47 47 47 47 46 46 47 48 47 47 46 47 47 47 46 46 45 44 44 44 43 42 42 42 42 42 42 41 41 41 40 38 38 40 40 40 40 40 41 41 41
44 45 46 47 47 47 47 47 48 49 49 49 48 48 47 48 47 46 46 44 44 45 45 44 44 44 43 43 43 42 42 42 41 41 39 40 41 41 41 41 41 41 41
44 44 45 46 47 47 47 47 48 49 49 49 49 48 48 48 47 47 47 46 45 46 46 45 44 44 45 44 43 43 42 42 42 42 42 40 41 41 42 43 42 42 42
43 43 44 44 46 46 47 47 48 48 49 49 49 49 48 48 48 48 48 48 47 46 47 47 45 45 45 45 45 44 44 44 44 44 44 42 42 42 42 43 43 43 44
43 44 44 45 45 46 47 47 47 48 49 49 49 49 49 49 49 49 49 49 47 47 47 48 47 46 46 46 46 46 46 45 45 45 46 45 44 44 43 43 44 44 44
43 44 44 44 45 45 46 47 47 48 49 49 50 50 50 50 50 50 50 49 48 47 47 48 48 48 47 47 47 47 47 47 47 47 47 47 46 45 44 44 44 45 45
43 44 44 44 45 46 47 47 47 48 49 49 50 50 50 50 50 51 51 51 50 49 48 49 49 50 49 49 49 49 49 48 48 48 48 48 48 47 46 46 46 47 47
44 44 44 45 44 45 46 47 47 47 48 49 49 50 50 50 50 51 52 52 52 51 50 50 51 51 51 50 50 50 50 50 50 50 50 49 49 48 47 47 47 47 48
43 44 44 44 44 44 45 45 46 47 47 48 49 49 49 49 50 50 51 51 52 52 51 51 51 52 51 51 51 51 51 51 50 50 50 50 50 50 50 50 49 49 49
42 43 43 43 43 44 44 44 45 46 47 47 47 48 48 49 49 49 50 51 51 51 51 51 51 52 52 51 51 51 51 51 51 51 51 51 51 51 52 52 51 50 50
41 42 42 42 42 43 43 43 44 45 45 45 46 47 47 47 48 48 49 51 51 51 51 50 51 51 52 52 52 51 52 52 52 51 52 52 52 51 52 51 50 50 50
40 40 41 41 41 41 42 42 43 43 44 45 45 46 46 46 47 47 48 50 51 51 51 50 50 51 52 52 52 51 52 52 52 51 51 51 51 52 52 52 51 51 50
39 39 39 39 39 40 40 40 41 42 43 44 44 45 45 46 47 47 48 48 49 50 51 50 50 50 51 51 51 51 51 51 51 51 51 51 51 52 52 52 52 51 50
37 38 37 38 38 38 38 38 39 40 41 41 42 43 44 44 46 47 48 48 48 49 50 50 49 50 50 50 51 51 50 50 50 50 50 50 50 51 52 52 52 51 51
36 37 37 37 36 36 36 37 37 38 39 39 39 40 42 43 43 44 45 46 47 48 48 48 47 48 48 49 49 50 49 49 49 49 50 50 50 50 51 51 52 51 51
36 36 36 35 34 34 35 35 36 36 36 37 36 37 38 40 41 42 43 43 44 46 47 47 46 46 47 47 48 49 48 48 49 48 49 49 50 51 51 51 51 51 51
34 34 33 34 33 32 32 32 33 33 33 34 34 34 35 36 38 39 40 41 42 43 44 45 46 46 46 46 46 47 48 48 48 48 48 48 49 50 50 50 51 51 51
33 33 33 32 32 31 32 32 32 32 32 32 33 33 33 33 34 36 37 38 39 41 42 43 44 44 44 44 46 46 47 47 46 47 47 48 48 48 48 49 49 49 49
32 32 32 31 30 30 31 31 31 31 31 31 31 31 31 31 32 33 34 35 36 38 39 41 41 42 42 43 44 45 45 46 46 46 47 47 48 48 48 47 48 48 49
33 32 31 31 30 30 29 29 29 29 29 30 30 31 31 32 32 32 33 33 34 36 37 38 39 40 41 42 43 43 44 45 46 46 46 46 47 47 47 46 46 47 48
32 31 30 29 29 30 30 29 28 29 29 30 30 29 30 32 32 32 32 33 34 35 35 36 37 38 39 40 40 41 42 43 44 44 45 46 46 46 46 46 46 47 48
30 30 29 28 28 28 29 30 30 30 30 30 31 32 32 32 32 33 33 32 32 33 34 34 35 37 38 39 39 39 40 41 42 43 43 44 44 45 44 44 45 46 47
29 28 28 27 27 27 28 29 30 30 31 31 32 33 33 32 32 33 33 34 33 33 33 34 35 36 37 37 37 38 39 39 40 41 42 42 43 43 43 44 45 45 46

GEFSMW_500_meanwind_318.txt.gz
Wind_Speed
42 43 43 44 44 44 44 44 44 43 43 43 43 43 43 43 43 43 43 43 44 44 44 43 42 42 41 41 40 40 39 37 37 37 36 35 35 36 36 36 35 36 36
44 45 45 46 46 46 46 46 45 45 45 45 45 45 45 45 45 44 44 44 44 44 45 44 43 43 42 41 40 40 39 38 38 38 37 36 36 36 37 37 37 37 37
46 46 46 47 47 47 47 47 46 46 47 47 47 47 47 47 46 46 45 45 45 44 45 45 45 44 43 42 41 40 40 40 40 40 40 39 37 37 37 38 38 38 38
47 47 48 48 49 49 48 48 48 48 48 48 48 48 48 48 48 47 47 46 46 46 46 47 46 45 44 43 42 42 42 42 42 42 42 41 39 39 38 39 40 40 40
45 47 47 48 49 49 49 49 49 49 49 49 48 48 48 49 49 48 48 48 48 48 47 47 47 46 46 45 45 44 44 44 44 43 43 42 41 39 39 39 40 41 41
43 44 45 46 48 48 49 49 49 50 50 49 49 49 49 49 49 48 48 48 48 49 48 48 48 47 47 46 47 46 46 46 45 45 44 43 42 41 41 41 41 41 42
42 43 44 45 46 47 48 49 49 49 50 50 50 50 50 50 50 49 49 49 49 49 49 49 48 48 47 48 48 47 47 47 46 46 46 44 44 43 43 43 43 42 43
41 43 43 44 45 46 47 48 49 49 50 50 51 51 52 52 51 51 51 50 50 51 51 50 49 49 49 49 49 49 48 48 47 47 47 46 45 44 45 44 44 44 44
41 42 43 43 44 45 46 47 49 50 50 51 51 52 52 52 52 51 51 51 51 51 52 51 50 50 50 49 49 50 49 49 49 48 48 47 47 47 47 45 45 46 46
41 42 42 43 44 45 47 47 48 49 50 51 51 52 53 53 53 52 52 52 52 52 52 52 52 51 51 50 50 50 50 49 49 49 50 50 49 48 48 47 47 47 47
41 41 42 43 44 45 46 46 47 48 49 50 51 52 53 53 54 53 53 53 53 52 52 53 52 52 52 51 51 51 51 50 50 51 51 50 50 49 49 48 48 47 48
40 41 42 43 43 44 45 45 46 47 48 49 50 51 52 53 53 53 53 54 54 54 54 54 53 53 53 52 52 52 52 51 51 51 51 51 51 51 51 50 49 49 48
39 40 41 42 42 43 43 44 45 46 47 47 48 49 51 52 52 53 53 54 54 54 54 55 54 54 53 53 52 52 51 51 51 51 51 51 52 52 51 51 50 49 49
39 39 39 40 41 42 43 43 44 45 45 46 47 48 49 50 51 52 51 53 54 54 54 54 54 53 53 53 52 51 51 51 51 51 51 51 52 52 52 51 51 51 51
37 37 38 39 40 41 41 42 43 43 44 44 45 46 47 48 49 49 50 51 53 53 53 53 53 53 52 52 51 51 51 50 50 50 50 50 51 51 52 52 51 51 51
37 37 37 38 39 39 40 40 41 41 42 42 43 44 45 46 47 47 48 49 51 52 52 53 53 53 53 52 51 50 50 50 50 50 50 50 51 51 53 53 52 52 51
35 35 36 37 37 38 39 39 39 39 40 40 41 43 44 44 44 45 45 47 49 50 50 51 53 53 52 51 51 50 50 50 50 50 50 51 51 52 53 53 53 53 52
35 36 37 37 37 38 38 38 38 39 39 40 40 42 43 43 43 43 44 45 47 48 49 50 51 51 51 51 51 50 51 51 50 50 50 50 51 52 52 53 53 53 53
36 36 37 37 37 36 36 36 37 37 38 39 40 41 41 41 42 42 42 44 45 47 48 49 51 51 51 51 51 51 51 51 51 51 51 50 51 51 52 52 53 52 52
35 36 36 36 36 36 36 36 36 36 36 36 37 38 38 38 39 40 40 41 43 44 46 47 49 49 51 51 51 51 51 51 51 51 51 50 51 51 52 52 53 52 52
34 35 35 36 36 35 35 35 35 36 36 36 36 36 37 37 37 37 37 38 40 41 42 45 46 47 47 49 50 50 50 50 50 50 50 50 50 50 51 51 52 52 51
34 35 35 35 35 34 34 34 34 34 34 34 34 35 36 36 36 36 36 37 37 38 39 41 43 45 45 46 47 47 48 49 49 49 48 47 48 49 49 50 50 51 51
34 34 34 34 33 33 33 33 33 32 31 32 32 33 34 33 33 34 35 35 36 37 38 39 40 42 43 44 45 46 46 46 47 47 46 46 46 46 47 48 50 51 51
33 33 33 32 32 32 32 32 32 31 30 30 30 31 32 33 33 33 34 34 35 36 36 38 39 40 41 42 43 44 45 45 45 45 44 45 45 45 46 47 48 49 50
31 31 30 30 30 30 30 30 30 30 29 29 30 30 31 31 32 32 33 33 34 34 35 36 38 39 40 41 42 42 43 44 45 44 44 44 44 45 46 46 47 48 49
30 30 29 29 29 28 28 28 28 29 28 28 29 30 31 31 32 32 33 34 35 35 35 35 36 37 39 40 41 42 42 42 43 43 42 43 43 44 45 45 46 46 47

GEFSMW_500_meanwind_324.txt.gz
Wind_Speed
43 43 43 43 43 43 43 43 43 44 44 43 43 43 43 43 44 44 43 43 43 42 42 41 41 41 41 40 40 40 40 40 39 39 39 38 37 37 36 36 36 35 35
44 44 45 45 45 45 45 45 45 45 46 45 45 45 45 45 45 45 45 45 45 44 43 43 43 43 43 43 42 42 42 42 41 40 40 40 39 38 38 37 37 37 37
45 46 46 46 46 46 46 46 46 47 47 47 47 47 47 47 47 47 47 47 47 46 45 45 45 44 44 44 44 44 43 43 42 41 41 41 41 40 39 39 39 39 38
46 47 47 47 47 47 47 47 48 48 49 49 49 48 48 48 48 47 48 49 49 48 48 47 46 46 45 45 45 45 45 44 44 43 43 43 43 42 41 40 40 39 40
47 47 47 47 48 48 48 49 49 50 49 50 50 50 49 49 49 48 49 50 50 50 50 49 48 47 46 46 45 46 46 46 45 44 44 44 43 44 43 42 42 41 41
46 47 47 48 48 48 48 49 49 50 50 50 50 51 51 51 51 50 51 51 51 51 51 50 50 48 48 47 46 46 47 47 46 46 45 45 44 44 43 43 44 43 43
45 46 46 47 47 48 48 49 50 50 50 51 51 51 51 52 52 52 52 52 52 51 51 51 51 50 49 49 48 48 48 48 48 47 47 46 46 45 45 45 44 44 44
44 44 45 45 47 48 48 49 50 50 51 51 51 52 52 52 52 52 52 52 53 53 52 52 52 51 51 50 50 49 49 49 49 48 48 47 46 46 46 46 46 44 44
43 44 44 45 46 46 47 48 49 49 50 50 51 52 52 52 52 52 53 53 53 53 53 53 53 53 52 52 51 51 50 51 50 49 48 47 47 47 47 47 47 46 46
42 43 44 44 45 46 46 47 47 48 49 50 51 52 53 53 53 53 53 53 54 54 54 53 54 54 53 53 52 52 52 52 51 50 49 48 49 49 49 49 48 48 47
42 43 43 44 45 45 46 47 47 48 49 50 51 52 53 53 54 54 53 54 54 54 54 54 54 54 54 54 54 53 53 53 53 52 51 50 50 49 49 49 50 49 49
42 42 43 44 45 45 46 47 48 48 49 49 50 52 53 53 53 53 54 55 55 54 54 54 55 55 55 54 54 54 55 54 54 53 52 51 51 51 51 51 51 51 50
41 41 42 43 44 44 45 46 48 48 49 50 50 51 52 52 53 53 53 54 54 54 55 54 54 54 54 54 54 54 54 54 54 54 53 52 51 51 52 52 52 52 51
40 41 41 42 43 44 45 46 47 48 49 49 50 50 51 52 53 53 53 53 54 54 54 53 54 54 54 53 54 55 54 54 54 54 54 53 52 51 52 52 52 51 52
39 40 41 42 43 43 44 45 46 47 48 49 49 49 50 51 52 52 52 53 53 54 55 54 54 54 54 54 54 55 55 55 54 54 54 53 52 52 52 52 51 51 51
39 39 40 41 42 43 44 45 46 47 47 48 49 49 50 50 51 51 52 53 54 55 55 54 54 54 54 55 55 55 55 54 54 54 53 53 52 51 51 51 51 51 51
39 39 40 41 42 43 44 45 46 46 47 48 48 49 49 50 50 50 51 53 54 55 55 54 55 54 54 55 55 55 55 54 53 53 52 52 51 50 50 50 50 50 51
39 40 40 41 41 42 43 44 45 45 46 47 47 48 49 49 49 50 50 51 52 53 53 53 54 54 54 54 54 54 54 54 53 53 52 51 50 49 50 50 50 50 51
39 39 40 40 41 42 42 43 43 44 44 45 45 46 47 47 48 48 49 49 50 51 51 52 53 52 52 52 52 54 53 53 53 52 52 51 50 50 50 51 50 50 50
39 40 40 41 41 42 42 43 43 43 44 45 45 45 45 45 46 46 47 47 47 48 48 49 50 50 50 50 51 52 52 52 53 53 52 51 51 51 51 51 50 50 50
39 40 40 41 41 42 43 43 43 44 44 44 44 44 45 44 44 44 44 44 45 45 45 46 47 48 48 49 49 50 51 51 52 52 52 52 52 51 51 51 51 50 50
38 38 39 40 41 42 42 43 43 44 43 42 42 42 42 43 42 41 41 42 42 43 43 44 44 45 45 46 47 48 49 49 50 50 50 50 50 51 51 51 50 50 51
37 37 38 38 39 39 40 42 42 42 42 41 40 40 40 40 40 39 39 39 40 40 40 41 42 42 43 44 45 45 46 47 48 49 49 50 49 50 51 51 50 50 51
35 35 36 36 37 38 39 40 40 40 39 38 38 38 38 38 37 37 37 37 38 38 38 39 40 41 42 42 43 44 45 46 47 48 48 49 49 49 49 49 49 49 50
33 34 35 36 36 37 36 37 37 36 36 37 37 37 37 36 35 35 34 35 35 35 36 37 38 39 40 41 43 44 44 45 46 47 47 47 47 48 48 48 48 48 48
32 33 33 34 34 34 33 34 34 34 34 35 35 34 34 34 34 33 33 33 34 34 34 36 37 38 39 40 42 43 44 44 45 46 46 46 47 47 47 47 47 47 47

GEFSMW_500_meanwind_330.txt.gz
Wind_Speed
44 44 43 43 43 42 42 41 41 40 41 40 40 40 41 41 41 41 41 41 41 40 40 41 40 40 40 40 40 39 39 39 37 37 37 38 38 38 37 37 37 38 37
45 45 45 44 44 44 44 44 43 42 42 42 43 43 42 43 42 42 42 42 42 42 41 41 41 41 41 41 41 41 41 40 40 39 39 39 39 39 39 39 39 39 39
45 46 46 46 46 45 45 45 45 45 44 45 45 45 44 44 44 43 44 44 44 44 43 43 42 42 42 41 42 42 42 43 43 42 42 41 41 41 40 41 41 40 40
45 46 46 47 47 47 47 47 47 47 47 47 47 47 46 46 45 45 46 45 45 46 45 45 45 45 44 45 44 44 44 44 44 43 43 43 43 43 42 42 42 42 42
44 45 46 47 47 47 48 48 48 49 49 49 49 48 48 48 48 47 47 47 47 47 47 47 47 47 47 47 47 47 46 46 45 45 45 44 44 44 44 43 43 43 43
44 45 45 46 46 47 47 48 48 49 49 49 50 50 50 49 49 49 49 49 49 49 49 49 49 49 49 49 49 49 48 48 48 47 47 46 46 45 45 45 45 44 43
43 44 45 45 46 47 47 48 48 49 49 50 50 50 50 50 51 51 51 51 51 51 50 50 50 51 51 50 50 50 50 50 50 49 48 48 47 47 47 47 47 47 46
42 43 44 45 46 47 47 48 49 49 49 49 50 51 51 51 51 52 52 52 52 52 52 52 52 52 52 52 52 52 51 52 51 50 50 49 48 48 49 49 49 49 48
42 43 44 45 46 46 47 48 48 49 49 50 50 51 51 51 52 52 53 53 53 53 53 53 54 54 54 54 52 52 52 52 52 51 51 50 49 50 50 49 49 50 49
41 42 43 45 46 46 47 48 48 49 49 50 51 51 51 51 52 52 53 54 54 54 55 54 54 54 54 55 54 52 52 52 52 53 53 52 51 51 51 50 50 50 50
41 42 43 44 45 46 47 48 49 49 50 51 51 51 51 52 52 53 53 54 54 55 55 54 55 55 55 55 54 53 53 53 52 53 53 53 53 53 52 52 52 52 51
42 43 44 45 45 46 47 48 49 50 51 51 51 51 52 52 52 53 53 54 55 55 55 55 55 56 56 56 55 55 54 54 53 53 53 53 53 54 53 53 53 53 53
42 43 44 45 46 46 47 48 48 49 50 51 51 52 52 53 53 53 54 54 55 55 56 56 56 56 57 57 57 56 55 55 55 54 54 55 55 54 54 54 54 54 54
41 42 43 44 45 46 46 47 48 49 50 50 51 51 52 52 53 54 54 54 55 55 56 56 56 57 57 58 57 56 56 56 56 56 55 56 56 55 55 55 55 55 55
40 41 42 43 44 45 46 47 47 48 49 49 50 50 51 52 53 53 54 55 55 55 56 56 56 57 57 57 57 57 57 57 57 56 56 56 56 56 56 55 55 55 55
41 41 42 42 44 45 46 46 46 47 48 48 49 50 51 51 52 52 53 54 55 56 56 56 56 57 57 58 58 58 57 57 57 57 57 57 57 56 56 56 56 55 55
40 41 42 42 43 44 45 45 46 47 47 48 49 49 50 50 51 51 52 53 54 55 56 57 57 57 57 58 59 58 58 58 57 57 57 57 56 56 56 56 56 56 55
39 40 40 41 42 43 43 44 45 46 47 47 48 49 49 50 50 50 51 52 53 54 55 57 57 58 58 58 59 59 58 58 58 57 56 56 56 56 56 56 56 55 54
38 39 39 40 40 41 42 43 44 45 46 46 46 47 48 49 49 50 50 51 51 52 53 54 55 56 56 57 58 58 58 57 57 56 56 55 55 55 55 56 55 54 54
38 38 38 38 39 40 41 41 42 43 44 44 45 46 47 48 48 49 49 50 50 50 51 51 51 52 53 54 55 56 56 56 56 55 55 55 55 55 55 55 54 54 53
37 37 37 37 38 39 40 41 42 43 43 44 45 46 47 47 48 48 49 49 49 49 49 49 49 49 50 50 52 53 54 54 54 54 54 54 54 53 53 54 53 53 53
38 38 37 37 37 38 38 39 41 42 42 43 44 44 45 46 47 47 47 48 48 48 48 48 48 48 48 48 49 50 51 52 53 52 52 53 53 53 53 53 53 53 53
37 37 37 36 36 37 38 38 39 41 41 42 42 43 43 43 43 44 44 45 46 46 46 46 47 47 48 48 47 48 49 50 51 51 51 51 52 53 52 52 53 53 53
34 34 34 34 35 35 36 36 36 37 39 40 40 41 41 41 41 42 42 43 44 44 44 44 45 45 46 45 45 46 47 48 49 50 50 50 50 51 51 52 53 53 53
32 33 33 33 33 34 35 35 35 35 36 36 37 38 38 39 39 40 41 42 42 42 42 42 42 43 43 43 44 44 45 46 48 49 49 49 49 50 50 51 51 51 52
31 32 32 32 33 33 34 34 33 33 34 34 34 35 35 36 37 38 38 39 39 40 40 40 40 40 41 41 42 43 44 44 46 47 48 48 48 49 49 49 49 49 49